Location: Newark
(40.3820°N, 3.6624°W)
Time: 04:04:19
(UTC+00:00)

N. Korean satellite - Pass Details

Date: 23 November 2019
Orbit: 455 x 506 km, 97.2° (Epoch: 10 December)

Event Time Altitude Azimuth Distance (km) Brightness Sun altitude
Rises 06:00:25 0° 13° (NNE) 2,604 10.3 -13.1°
Reaches altitude 10° 06:02:32 10° 16° (NNE) 1,709 9.3 -12.7°
Maximum altitude 06:06:12 73° 101° (E) 521 6.8 -12.0°
Drops below altitude 10° 06:09:48 10° 187° (S) 1,669 9.4 -11.4°
Sets 06:11:50 0° 189° (S) 2,535 10.3 -11.0°
